[Iaude] MPEC C195: 2024 CS6 [a=1.68,e=0.40,i=7.8,H=26.1]

mpec at cfa.harvard.edu mpec at cfa.harvard.edu
Thu Feb 15 17:39:46 EST 2024


M.P.E.C. 2024-C195                            Issued 2024 February 15, 22:38 UT

     The Minor Planet Electronic Circulars contain information on unusual
         minor planets, routine data on comets and natural satellites,
         and occasional editorial announcements.  They are published
    on behalf of Division F of the International Astronomical Union by the
          Minor Planet Center, Smithsonian Astrophysical Observatory,
                          Cambridge, MA 02138, U.S.A.
			  
             Prepared using the Tamkin Foundation Computer Network

                              MPC at CFA.HARVARD.EDU
            URL https://www.minorplanetcenter.net/    ISSN 1523-6714

                                    2024 CS6                                    


Observations:
     K24C06S*1C2024 02 15.26727708 49 00.145-11 42 26.17         19.13GVEC195703
     K24C06S 1C2024 02 15.27186308 49 09.142-11 41 30.55         18.83GVEC195703
     K24C06S 1C2024 02 15.27415408 49 13.595-11 41 03.16         18.63GVEC195703
     K24C06S KC2024 02 15.33218208 51 07.762-11 29 05.57         18.77GVEC195I52
     K24C06S KC2024 02 15.33370008 51 10.775-11 28 46.67         19.00GVEC195I52
     K24C06S KC2024 02 15.33521108 51 13.763-11 28 27.77         18.67GVEC195I52
     K24C06S KC2024 02 15.33671708 51 16.754-11 28 08.69         18.59GVEC195I52
     K24C06S  C2024 02 15.35173208 51 45.512-11 25 05.82         19.3 GVEC195H01
     K24C06S  C2024 02 15.35520008 51 52.456-11 24 21.87         18.4 GVEC195H01
     K24C06S  C2024 02 15.36966808 52 21.491-11 21 18.19         18.9 GVEC195H01
     K24C06S  C2024 02 15.37301308 52 28.255-11 20 35.48         18.5 GVEC195H01
     K24C06S KC2024 02 15.42005008 54 04.590-11 10 25.75         18.46GVEC195I52
     K24C06S KC2024 02 15.42114108 54 06.844-11 10 11.75         18.30GVEC195I52
     K24C06S KC2024 02 15.42223308 54 09.072-11 09 57.42         18.73GVEC195I52
     K24C06S hC2024 02 15.82465509 09 26.64 -09 42 27.8          18.9 GVEC195L01
     K24C06S hC2024 02 15.82705809 09 31.83 -09 41 54.8          18.7 GVEC195L01
     K24C06S KB2024 02 15.82805 09 09 30.40 -09 41 50.1          18.4 GXEC195M45
     K24C06S KB2024 02 15.83702 09 09 49.62 -09 39 47.1          18.6 GXEC195M45
     K24C06S 0B2024 02 15.88889 09 11 45.912-09 20 12.98         19.3 VZEC195M49
     K24C06S 0B2024 02 15.89057 09 11 49.428-09 19 49.62         18.8 VZEC195M49
     K24C06S 0B2024 02 15.89222 09 11 52.949-09 19 26.58         18.7 VZEC195M49

Observer details:
703 Catalina Sky Survey.  Observer H. Groeller.  Measurers T. Beuden, V. F.
    Carvajal, D. Fay, J. B. Fazekas, D. C. Fuls, A. R. Gibbs, A. D. Grauer, H.
    Groeller, J. K. Hogan, R. A. Kowalski, S. M. Larson, G. J. Leonard, D.
    Rankin, R. L. Seaman, F. C. Shelly, K. W. Wierzchos.  0.68-m Schmidt + 10K
    CCD.
H01 Magdalena Ridge Observatory, Socorro.  Observers W. H. Ryan, E. V. Ryan.
    Measurer W. H. Ryan.  2.4-m f/8.9 Ritchey-Chretien + CCD.
I52 Steward Observatory, Mt. Lemmon Station.  Observer J. B. Fazekas.
    Measurers E. C. Beshore, D. Fay, J. B. Fazekas, D. C. Fuls, A. R. Gibbs,
    A. D. Grauer, H. Groeller, J. K. Hogan, R. A. Kowalski, S. M. Larson, G.
    J. Leonard, D. Rankin, R. L. Seaman, F. C. Shelly, K. W. Wierzchos.  1.0-m
    prime focus + CCD.
L01 Visnjan Observatory, Tican.  Observer K. Korlevic.  1.0-m f/2.9 reflector
    + CCD.
M45 Starhopper Observatory, Sfantu Gheorghe.  Observer F. Ursache.  0.41-m
    f/7.5 reflector + CMO.
M49 IAS Remote Observatory, Hakos.  Observers D. Husar, M. Junius.  Measurer
    D. Husar.  0.25-m f/4.5 reflector + CMO.

Orbital elements:
2024 CS6                                                 Earth MOID = 0.0190 AU
Epoch 2024 Mar. 31.0 TT = JDT 2460400.5                 Veres                   
M  20.04433              (2000.0)            P               Q                  
n   0.45202354     Peri.  356.18962     -0.82937595     -0.55456019             
a   1.6814941      Node   149.81377     +0.51608801     -0.80695603             
e   0.4014496      Incl.    7.75089     +0.21398294     -0.20318703             
P   2.18           H   26.14          G   0.15           U   7                  
Residuals in seconds of arc
240215 703  0.3-  0.2+    240215 H01  0.0   0.0     240215 L01  0.3-  0.3-
240215 703  0.1+  0.0     240215 H01  0.1+  0.0     240215 L01  0.2-  0.0
240215 703  0.2-  0.5-    240215 H01  0.1-  0.0     240215 M45  0.5+  0.1-
240215 I52  0.1+  0.0     240215 H01  0.2+  0.1+    240215 M45  0.2+  0.2+
240215 I52  0.1+  0.1-    240215 I52  0.4-  0.1-    240215 M49  0.6+  0.3+
240215 I52  0.0   0.1-    240215 I52  0.2-  0.2-    240215 M49  0.1+  0.3+
240215 I52  0.1+  0.1+    240215 I52  0.4-  0.0     240215 M49  0.5+  0.3+

Ephemeris:
2024 CS6                 a,e,i = 1.68, 0.40, 8                   q = 1.0065
Date    TT    R. A. (2000) Decl.     Delta      r    Elong.  Phase     V
2024 01 16    05 19 00.5 -21 43 08   0.1251  1.0585   123.8    50.5    23.6
...
2024 01 31    05 39 35.1 -22 53 16   0.07065 1.0203   118.1    58.4    22.5
...
2024 02 08    06 24 36.9 -21 48 11   0.04217 1.0097   122.6    55.4    21.3
...
2024 02 14    08 08 38.6 -15 16 27   0.02400 1.0065   142.4    36.7    19.5
2024 02 15    08 39 47.0 -12 30 21   0.02189 1.0064   149.0    30.4    19.2
2024 02 16    09 15 50.2 -08 55 56   0.02031 1.0064   156.3    23.2    18.8
...
2024 02 22    12 57 02.5 +14 43 17   0.02532 1.0088   141.0    38.1    19.7
...
2024 03 01    14 44 38.9 +22 08 11   0.05106 1.0184   121.4    56.1    21.8
...
2024 03 16    15 24 35.4 +23 54 49   0.1054  1.0548   122.3    52.9    23.3

M. P. C. Staff               (C) Copyright 2024 MPC           M.P.E.C. 2024-C195





More information about the Iaude mailing list